{"data":{"norad_id":61758,"intl_designator":"2024-199Z","name":"SITRO-AIS 20","alt_names":[],"object_type":"PAYLOAD","status":"ACTIVE","operator":null,"country":"CIS","launch_date":"2024-11-04","launch_site_code":"VOSTO","launch_vehicle":null,"mission":null,"orbit_class":"UNKNOWN","rcs_meters":null,"size_class":null,"mass_kg":null,"dimensions":null,"purposes":[],"wikipedia_slug":null,"has_3d_model":false,"image_url":null,"decayed_at":null,"tle_current":{"epoch":"2026-09-22T21:12:43.054560Z","epoch_age_seconds":94083,"freshness":"FRESH","line1":"1 61758U 24199Z   26265.88383165  .00002046  00000+0  17620-3 0  9995","line2":"2 61758  97.3177  99.4202 0007772  98.0016 262.2090 14.98346064149769","mean_motion":14.98346064,"eccentricity":0.0007772,"inclination_deg":97.3177,"raan_deg":99.4202,"arg_perigee_deg":98.0016,"mean_anomaly_deg":262.209,"bstar":0.0001762,"rev_number":14976,"period_min":96.105968747684,"perigee_km":566.60456348683,"apogee_km":577.4078660999,"semimajor_km":6950.1432147934,"source":"CELESTRAK","updated_at":"2026-09-23T09:00:21.028848Z"}}}